{"data":{"norad_id":63023,"intl_designator":"2025-032U","name":"STARLINK-32943","alt_names":[],"object_type":"PAYLOAD","status":"ACTIVE","operator":null,"country":"US","launch_date":"2025-02-15","launch_site_code":"AFETR","launch_vehicle":null,"mission":null,"orbit_class":"UNKNOWN","rcs_meters":null,"size_class":null,"mass_kg":null,"dimensions":null,"purposes":["comms"],"wikipedia_slug":null,"has_3d_model":false,"image_url":null,"decayed_at":null,"tle_current":{"epoch":"2026-09-21T09:39:43.637760Z","epoch_age_seconds":87622,"freshness":"FRESH","line1":"1 63023U 25032U   26264.40258840  .00010879  00000+0  40408-3 0  9990","line2":"2 63023  43.0019 310.6065 0001577 272.5594  87.5077 15.27594659 90554","mean_motion":15.27594659,"eccentricity":0.0001577,"inclination_deg":43.0019,"raan_deg":310.6065,"arg_perigee_deg":272.5594,"mean_anomaly_deg":87.5077,"bstar":0.00040408,"rev_number":9055,"period_min":94.265844117487,"perigee_km":481.92319994585,"apogee_km":484.08720419638,"semimajor_km":6861.1422020711,"source":"CELESTRAK","updated_at":"2026-09-22T09:00:49.742528Z"}}}